Location: Nairn
(57.5833°N, 3.8667°W)
Time: 12:09:34
(UTC+00:00)

A-11 Canister half - Visible Passes

Search period start: 30 November 2020 00:00
Search period end: 10 December 2020 00:00
Orbit: 1516 x 1684 km, 47.2° (Epoch: 29 November)

Date Brightness Start Highest point End Pass type
(mag) Time Alt. Az. Time Alt. Az. Time Alt. Az.
30 Nov 10.6 16:18:10 10° W 16:27:09 38° SSW 16:36:11 10° SE visible
30 Nov 11.3 18:23:28 10° W 18:29:57 19° SW 18:36:26 10° S visible
01 Dec 11.3 18:00:25 10° W 18:07:08 20° SW 18:13:53 10° S visible
02 Dec 11.3 17:37:23 10° W 17:44:20 22° SW 17:51:19 10° S visible
03 Dec 11.3 17:14:22 10° W 17:21:32 23° SW 17:28:44 10° S visible
04 Dec 11.4 16:51:23 10° W 16:58:44 24° SW 17:06:07 10° S visible
05 Dec 11.4 16:28:24 10° W 16:35:54 25° SW 16:43:29 10° S visible
09 Dec 12.2 17:05:57 10° WSW 17:06:47 10° WSW 17:07:37 10° SW visible
